www.pogodaiklimat.ru

Погода и климат >> Архив погоды >> Кот-д'Ивуар >> Адиаке


ПОГОДА в Адиаке

  • Прогноз погоды в Адиаке
  • Монитор погоды в Адиаке

АРХИВ ПОГОДЫ в Адиаке

Время (UTC), дата Ветер
(напр.,м/с)
 
Видим.   Явления Облачность Т
(С)
Тd
(С)
f
(%)
Тe
(С)
Тes
(С)
Комфортность P
(гПа)
Po
(гПа)
Тmin
(С)
Tmax
(С)
R
(мм)
R24
(мм)
S
(см)
03 15.09 0 8000 м {дождь} 9/9 400 м
[]
+24.3 +23.6 96 1011.5 1007.7
06 15.09 0 8000 м слаб. дождь 10/3 330 м
[Cu med, cong Ac As]
+24.4 +23.8 96 1012.3 1008.5 +23.5 17
09 15.09 0 10 км {дождь} 8/5 400 м
[Cu med, cong Ac trans]
+26.7 +24.1 86 1013.3 1009.5
12 15.09 0 10 км в посл. час дождь 8/5 400 м
[Cu med, cong Ac As]
+27.0 +24.1 84 1012.7 1008.9 1
15 15.09 0 10 км 6/4 400 м
[Cu med, cong Ac trans]
+28.3 +23.9 77 1010.4 1006.6
18 15.09 0 10 км 6/6 400 м
[Cu med, cong]
+25.7 +23.2 86 1011.1 1007.3 +29.4 1
21 15.09 0 8000 м 5/0
[Ac trans]
+24.2 +23.5 96 1012.1 1008.3
00 16.09 0 8000 м {дождь} 9/5 400 м
[Sc Ac As]
+24.6 +24.0 96 1012.4 1008.6 1
03 16.09 0 8000 м {дождь} 10/5 400 м
[Sc Ac As]
+24.5 +23.8 96 1011.1 1007.3
06 16.09 0 8000 м {дождь} 8/5 400 м
[Cb cap Ci sp]
+24.0 +23.3 96 1012.1 1008.3 +23.6 4
09 16.09 0 10 км 9/8 400 м
[Cu med, cong Ac trans]
+26.0 +24.6 92 1013.4 1009.6
18 16.09 0 10 км 8/6 400 м
[Sc diur, vesp Ci sp]
+26.0 +23.8 88 1010.6 1006.8 +29.2 0.7
21 16.09 0 8000 м 4/4 400 м
[Sc]
+24.5 +23.8 96 1012.1 1008.3
00 17.09 0 8000 м 3/3 400 м
[Sc]
+24.0 +23.7 98 1012.6 1008.8
03 17.09 0 8000 м 8/5 400 м
[Sc Ac As]
+24.0 +23.9 99 1011.5 1007.7
09 17.09 0 10 км 10/10 400 м
[Sc]
+26.0 +24.3 90 1013.9 1010.1
12 17.09 0 10 км {дождь} 8/8 400 м
[Cu med, cong]
+29.0 +24.0 74 1012.2 1008.4 0.2
15 17.09 0 10 км 6/6 400 м
[Cu med, cong]
+28.6 +23.4 73 1009.9 1006.1
18 17.09 0 10 км 9/4 400 м
[Cu med, cong Ac As Ci sp]
+26.1 +23.8 87 1010.5 1006.7 +29.5 0.2
21 17.09 0 10 км 9/1 400 м
[Sc Ac As]
+25.5 +24.2 93 1012.8 1009.0
00 18.09 0 8000 м 8/3 400 м
[Sc Ac trans]
+24.5 +23.8 96 1012.4 1008.6
03 18.09 0 8000 м 9/1 400 м
[Sc Ac As]
+24.5 +23.8 96 1011.2 1007.4
06 18.09 0 8000 м 10/1 400 м
[Sc Ac As]
+24.5 +23.8 96 1011.6 1007.8 +24.3 0.2
09 18.09 0 8000 м 10/10 180 м
[Cu med, cong]
+25.9 +23.9 89 1013.3 1009.5
12 18.09 0 8000 м в посл. час дождь 9/9 400 м
[Cu med, cong Ac As]
+26.3 +24.4 89 1013.0 1009.2 2
15 18.09 0 8000 м слаб. дождь 10/5 400 м
[Cu med, cong Ac As]
+26.0 +23.8 88 1010.8 1007.0
18 18.09 0 8000 м {дождь} 6/5 400 м
[Cu med, cong Ac trans]
+26.0 +23.1 84 1010.7 1006.9 +27.7 2
21 18.09 0 8000 м 10/0
[Ac As]
+24.5 +23.8 96 1013.2 1009.4
00 19.09 0 8000 м гроза без осадков 10/9 400 м
[Cb cap]
+24.0 +23.3 96 1012.7 1008.9 0.3
03 19.09 0 8000 м {гроза} 10/4 400 м
[Sc Ac As]
+23.9 +23.3 96 1010.4 1006.6
06 19.09 0 6000 м в посл. час дождь {гроза} 9/3 400 м
[Sc Ac As]
+23.9 +23.5 98 1011.2 1007.4 +23.5 3
09 19.09 0 8000 м 10/5 400 м
[Cu med, cong Ac As]
+25.5 +23.9 91 1013.2 1009.4
12 19.09 0 8000 м в посл. час дождь 8/5 400 м
[Cu med, cong Ac As]
+26.5 +24.8 90 1011.9 1008.1 1
15 19.09 0 10 км в посл. час дождь 9/5 400 м
[Cu med, cong Ac As]
+25.7 +24.0 90 1009.8 1006.0
18 19.09 0 10 км {дождь} 9/6 400 м
[Cu med, cong Ac trans]
+25.2 +24.2 94 1010.0 1006.2 +28.2 1
21 19.09 0 8000 м 8/8 400 м
[Sc]
+25.1 +23.9 93 1011.6 1007.8
00 20.09 0 8000 м в посл. час дождь 10/6 400 м
[Sc Ac As]
+24.5 +24.0 97 1012.5 1008.7 0.3
03 20.09 0 8000 м слаб. дождь 10/0 300 м
[Ac As]
+24.0 +23.6 98 1011.0 1007.2
09 20.09 0 6000 м слаб. дождь 10/10 400 м
[Sc]
+24.9 +24.3 96 1013.7 1009.9

 

Местоположение метеостанции Адиаке (Кот-д'Ивуар): широта 5.30 долгота -3.30 высота над уровнем моря 39 м.

В архиве по умолчанию представлена погода в Адиаке за последнюю неделю. Архивные данные за месяц целиком и за предыдущие месяцы, начиная с января 2011 года, Вы можете получить, выбрав интересующий диапазон дат из раскрывающегося списка и нажав кнопку "Ввод!".


*Определитесь, кто Вы:
робот инопланетянин человек

Внимание! Время в таблицах - всемирное. Для получения местного времени необходимо прибавить поправку, которая равна 0 ч.

Смотрите также архив погоды в соседних городах и на ближайших метеорологических станциях:

Погода в Абиджане (Кот-д'Ивуар) (70 км)
Погода в Аксиме (Гана) (128 км)
Погода в Сефви Беквай (Гана) (147 км)
Погода Такоради (Гана) (176 км)
Погода в Димбокро (Кот-д'Ивуар) (216 км)
Погода в Кумаси (Гана) (246 км)
Погода в Солтпонде (Гана) (247 км)
Погода в Суняни (Гана) (250 км)
Погода в Аким Ода (Гана) (266 км)
Погода в Ямусукро (Кот-д'Ивуар) (288 км)

Пояснения к столбцам:

Ветер - указаны скорость ветра в м/с - средняя за 10 мин, порывы в срок и между сроками (в фигурных скобках) и направление, откуда дует ветер: С - северный, СВ - северо-восточный, В - восточный, ЮВ - юго-восточный, Ю - южный, ЮЗ - юго-западный, З - западный, СЗ - северо-западный.
Видимость - горизонтальная дальность видимости в метрах или километрах. При видимости от 1 до 10 км при отсутствии осадков обычно наблюдается дымка, при ухудшении видимости до 1 км и менее - туман. В сухую погоду видимость может ухудшаться дымом, пылью или мглою.
Явления - указаны атмосферные явления, наблюдавшиеся в срок или в последний час перед сроком; фигурными скобками обозначены явления, наблюдавшиеся между сроками (за 1-3 часа до срока); квадратными скобками обозначены град или гололедные отложения с указанием их диаметра в мм.
Облачность - указаны через наклонную черту общая и нижняя облачность в баллах и высота нижней границы облаков в метрах; квадратными скобками обозначены формы облаков: Ci - перистые, Cs - перисто-слоистые, Cc - перисто-кучевые, Ac - высококучевые, As - высокослоистые, Sc - слоисто-кучевые, Ns - слоисто-дождевые, Cu - кучевые, Cb - кучево-дождевые. Подробнее классификацию облаков см. в Атласе облаков (PDF).
T - Температура воздуха - температура, измеренная на высоте 2 м над землей.
Td - Температура точки росы - температура, при понижении до которой содержащийся в воздухе водяной пар достигнет насыщения.
f - Относительная влажность воздуха - влажноcть воздуха, измеренная на высоте 2 м над землей.
Te - Эффективная температура - температура, которую ощущает одетый по сезону человек в тени. Характеристика душности погоды. При расчете учитывается влияние влажности воздуха и скорости ветра на теплоощущения человека.
Tes - Эффективная температура на солнце - температура, которую ощущает человек, с поправкой на солнечный нагрев. Характеристика знойности погоды. Зависит от высоты солнца над горизонтом, облачности и скорости ветра. Ночью, в пасмурную погоду, а также при ветре 12 м/с и более поправка равна нулю.
P - Атмосферное давление - приведенное к уровню моря атмосферное давление.
Po - Атмосферное давление - измеренное на уровне метеостанции атмосферное давление.
Tmin - Минимальная температура - минимум температуры воздуха на высоте 2 м над землей.
Tmax - Максимальная температура - максимум температуры воздуха на высоте 2 м над землей.
R - Количество осадков - Количество выпавших осадков за период времени, мм. При наведении курсора мыши на число - период времени, за который выпало указанное количество осадков.
R24 - Количество осадков - Количество выпавших осадков за 24 часа, мм.
S - Снежный покров - Высота снежного покрова, см. При наведении курсора мыши на число - состояние снежного покрова и степень покрытия местности в баллах.